Location: Gleizolles
(44.4833°N, 6.7667°E)
Time: 16:17:30
(UTC+00:00)

Altair - Pass Details

Date: 26 June 2024
Orbit: 1502 x 1681 km, 47.2° (Epoch: 13 July)

Event Time Altitude Azimuth Distance (km) Brightness Sun altitude
Rises 21:13:35 0° 172° (S) 4,625 - -14.8°
Reaches altitude 10° 21:18:59 10° 146° (SE) 3,644 - -15.3°
Maximum altitude 21:22:29 13° 123° (ESE) 3,437 - -15.6°
Exits shadow 21:23:47 12° 114° (ESE) 3,472 8.9 -15.8°
Drops below altitude 10° 21:25:59 10° 100° (E) 3,662 9.1 -16.0°
Sets 21:31:23 0° 74° (ENE) 4,672 9.9 -16.5°
